Simultaneous Nadir Overpasses (SNOs) Predictions

Prediction of SNOs between NOAA-19 and NPP Satellite Orbit:

Table of predicted SNOs for the next 14.0 days since TLE Epoch: 6/15/2012
Index Date (NOAA-19) Time (NOAA-19) NOAA-19 Lat,Lon Date (NPP) Time (NPP) NPP Lat,Lon Distance(km) Time Diff (sec)
1 06/21/2012 06:33:34 80.67, 34.03 06/21/2012 06:34:40 80.66, 34.17 2.66 66
2 06/21/2012 07:24:38 -80.59,-157.42 06/21/2012 07:25:22 -80.59,-157.46 0.66 44
3 06/21/2012 08:15:36 80.60, 9.61 06/21/2012 08:16:07 80.60, 9.75 2.51 31
4 06/21/2012 09:06:39 -80.50, 178.47 06/21/2012 09:06:48 -80.50, 178.43 0.78 9
5 06/21/2012 09:57:37 80.52, -14.48 06/21/2012 09:57:33 80.51, -14.36 2.37 4
6 06/21/2012 10:48:40 -80.41, 154.34 06/21/2012 10:48:14 -80.41, 154.30 0.88 26
7 06/21/2012 11:39:38 80.42, -38.60 06/21/2012 11:38:59 80.42, -38.49 2.26 39
8 06/21/2012 12:30:40 -80.29, 130.50 06/21/2012 12:29:39 -80.29, 130.45 0.96 61




NCC Satellite Simultaneous Nadir Overpasses (SNOs) Prediction Service
